User: anonymous   Login
Location: Tyler Bend Campground
(35.9875°N, 92.7606°W)
Time: 23:20:11
(UTC-06:00)
Language:

CZ-2C R/B - Orbit

View from above orbital plane
View from above orbital plane
View from above satellite
View from above satellite

Ground track
Ground track

The orbit data is extracted from the following two-line orbital elements,

1 36089U 09061B   15058.56652015  .00000292  00000-0  84182-4 0  9991
2 36089 098.0815 086.2422 0083612 113.5507 047.0536 14.49370003279931
Epoch (UTC): 27 February 2015 13:35:47
Eccentricity: 0.0083612
inclination: 98.0815°
perigee height: 668 km
apogee height: 787 km
right ascension of ascending node: 86.2422°
argument of perigee: 113.5507°
revolutions per day: 14.49370003
mean anomaly at epoch: 47.0536°
orbit number at epoch: 27993

The dashed part of the orbit path shows where the satellite is in the earth's shadow,  

DLR